N8RUL Weather Reports


time (UTC)temp
F
wind
direction
speed
knots
gust
knots
rain 1hr
in
rain 24hr
in
rain mn
in
humidity
%
barometer
mb
20260903085011 67 104 0.0 1.7 0.00 0.02 0.00 93 1014.2
20260903084538 68 5 0.0 1.7 0.00 0.02 0.00 93 1014.1
20260903084012 68 360 0.0 1.7 0.00 0.02 0.00 93 1014.1
20260903083514 68 217 0.0 1.7 0.00 0.02 0.00 93 1014.0
20260903083025 68 286 0.0 0.0 0.00 0.02 0.00 93 1014.0
20260903082515 68 286 0.0 0.0 0.00 0.02 0.00 93 1013.9
20260903082015 68 286 0.0 1.7 0.00 0.02 0.00 93 1013.7
20260903081529 68 286 0.0 1.7 0.00 0.02 0.00 92 1013.7
20260903081018 68 286 0.0 1.7 0.00 0.02 0.00 92 1013.7
20260903080519 68 294 0.0 2.6 0.00 0.02 0.00 93 1013.7
20260903080033 68 5 0.9 2.6 0.00 0.02 0.00 92 1013.6
20260903075518 68 230 0.0 0.0 0.00 0.02 0.00 92 1013.7
20260903075017 68 230 0.0 0.0 0.00 0.02 0.00 92 1013.7
20260903074532 69 230 0.0 0.0 0.00 0.02 0.00 92 1013.8
20260903074011 69 230 0.0 0.0 0.00 0.02 0.00 92 1013.8
20260903073512 69 230 0.0 1.7 0.00 0.02 0.00 92 1013.9
20260903073021 69 230 0.0 1.7 0.00 0.02 0.00 92 1014.0
20260903072513 69 230 0.0 1.7 0.00 0.02 0.00 92 1014.1
20260903072014 69 233 0.0 1.7 0.00 0.02 0.00 92 1014.1
20260903071528 69 224 0.0 1.7 0.00 0.02 0.00 92 1014.2
20260903071014 69 263 0.0 1.7 0.00 0.02 0.00 92 1014.2
20260903070519 69 269 0.0 1.7 0.00 0.02 0.00 92 1014.3
20260903070030 69 269 0.0 0.9 0.00 0.02 0.00 93 1014.2
20260903065518 68 276 0.0 0.9 0.00 0.02 0.00 92 1014.1
20260903065017 68 303 0.0 0.0 0.00 0.02 0.00 92 1013.9
20260903064537 68 303 0.0 1.7 0.00 0.02 0.00 92 1013.8
20260903064020 68 281 0.0 1.7 0.00 0.02 0.00 92 1013.9
20260903063519 69 283 0.0 1.7 0.00 0.02 0.00 92 1014.0
20260903063019 69 74 0.0 0.9 0.00 0.02 0.00 92 1014.0
20260903062512 69 74 0.0 0.0 0.00 0.02 0.00 91 1013.9
20260903062012 69 74 0.0 0.0 0.00 0.02 0.00 91 1013.8
20260903061529 69 74 0.0 0.9 0.00 0.02 0.00 91 1013.8
20260903061015 70 74 0.0 1.7 0.00 0.02 0.00 91 1014.0
20260903060515 70 141 0.0 1.7 0.00 0.02 0.00 90 1014.2
20260903060031 70 175 0.0 1.7 0.00 0.02 0.00 90 1014.2
20260903055518 71 175 0.0 1.7 0.00 0.02 0.00 89 1014.3
20260903055015 71 204 0.0 0.9 0.00 0.02 0.00 89 1014.3
20260903054533 71 203 0.0 1.7 0.00 0.02 0.00 89 1014.4
20260903054004 71 204 0.0 1.7 0.00 0.02 0.00 88 1014.6
20260903053504 72 186 0.0 1.7 0.00 0.02 0.00 88 1014.5
20260903053007 72 182 0.0 2.6 0.00 0.02 0.00 88 1014.7
20260903052506 72 182 0.9 3.5 0.00 0.02 0.00 88 1014.7
20260903052006 72 182 0.9 3.5 0.00 0.02 0.00 89 1014.6
20260903051508 71 202 0.9 3.5 0.00 0.02 0.00 88 1014.7
20260903051005 72 201 0.0 3.5 0.00 0.02 0.00 88 1014.7
20260903050505 72 186 0.9 2.6 0.00 0.02 0.00 88 1014.5
20260903050019 71 225 0.9 3.5 0.00 0.02 0.00 88 1014.6
20260903045503 71 179 1.7 3.5 0.00 0.02 0.00 88 1014.4
20260903045003 71 137 0.9 3.5 0.00 0.02 0.00 89 1014.5
20260903044503 71 176 0.9 2.6 0.00 0.02 0.00 89 1014.5
20260903044003 71 183 0.0 0.9 0.00 0.02 0.00 89 1014.7
20260903043504 71 183 0.0 1.7 0.00 0.02 0.00 89 1014.7
20260903043007 71 192 0.9 1.7 0.00 0.02 0.00 89 1014.7
20260903042504 71 196 0.0 1.7 0.00 0.02 0.00 88 1014.6
20260903042004 72 186 0.0 2.6 0.00 0.02 0.00 88 1014.5
20260903041517 72 177 0.0 4.3 0.00 0.02 0.00 88 1014.3
20260903041007 71 185 1.7 4.3 0.00 0.02 0.00 88 1014.4
20260903040505 71 173 1.7 4.3 0.00 0.02 0.00 89 1014.6
20260903040009 71 174 1.7 7.0 0.00 0.02 0.00 90 1014.9
20260903035503 71 213 3.5 7.0 0.00 0.02 0.02 91 1015.1
20260903035005 71 202 0.9 1.7 0.00 0.02 0.02 90 1014.3
20260903034509 71 58 0.0 1.7 0.00 0.02 0.02 90 1013.8
20260903034003 71 110 0.0 1.7 0.00 0.02 0.02 90 1013.5
20260903033505 71 141 0.0 1.7 0.00 0.02 0.02 90 1013.8
20260903033009 71 142 0.9 2.6 0.00 0.02 0.02 90 1013.8
20260903032509 71 134 0.9 4.3 0.00 0.02 0.02 90 1013.7
20260903032008 71 158 0.9 3.5 0.00 0.02 0.02 91 1014.2
20260903031508 71 162 0.9 2.6 0.00 0.02 0.02 91 1014.4
20260903031007 70 154 0.9 1.7 0.00 0.02 0.02 91 1013.7
20260903030510 70 144 0.0 1.7 0.00 0.02 0.02 91 1013.4
20260903030012 71 144 0.0 1.7 0.00 0.02 0.02 91 1013.5
20260903025503 71 143 0.0 1.7 0.00 0.02 0.02 91 1013.6
20260903025006 71 132 0.0 1.7 0.00 0.02 0.02 91 1013.4
20260903024508 71 148 0.0 1.7 0.00 0.02 0.02 91 1013.2
20260903024009 71 150 0.0 0.9 0.00 0.02 0.02 91 1013.2
20260903023508 71 94 0.0 0.9 0.00 0.02 0.02 91 1013.2
20260903023014 71 109 0.0 1.7 0.00 0.02 0.02 91 1013.6
20260903022508 71 87 0.0 1.7 0.00 0.02 0.02 91 1014.0
20260903022005 71 149 0.9 1.7 0.00 0.02 0.02 91 1014.1
20260903021517 71 144 0.9 1.7 0.00 0.02 0.02 91 1014.3
20260903021007 71 53 0.0 1.7 0.00 0.02 0.02 91 1014.4
20260903020508 72 182 0.0 1.7 0.00 0.02 0.02 91 1014.4
20260903020037 72 144 0.0 1.7 0.00 0.02 0.02 90 1014.3
20260903015506 72 144 0.0 1.7 0.01 0.02 0.02 90 1014.2
20260903015006 72 144 0.0 1.7 0.02 0.02 0.02 90 1014.2
20260903014513 72 352 0.0 1.7 0.02 0.02 0.02 90 1014.2
20260903014008 72 346 0.0 1.7 0.02 0.02 0.02 90 1014.3
20260903013504 72 336 0.0 0.9 0.02 0.02 0.02 90 1014.1
20260903013011 72 344 0.0 0.9 0.02 0.02 0.02 90 1014.1
20260903012508 72 340 0.0 1.7 0.02 0.02 0.02 90 1014.1
20260903012007 72 303 0.0 1.7 0.02 0.02 0.02 89 1014.1
20260903011511 72 303 0.0 1.7 0.02 0.02 0.02 89 1014.5
20260903011008 72 327 0.0 2.6 0.02 0.02 0.02 88 1014.4
20260903010511 72 21 0.9 2.6 0.02 0.02 0.02 88 1013.9
20260903010011 73 340 0.0 3.5 0.02 0.02 0.02 87 1014.0
20260903005507 73 16 1.7 4.3 0.01 0.01 0.01 86 1013.9
20260903005013 74 5 1.7 4.3 0.00 0.00 0.00 86 1013.7
20260903004513 74 30 0.9 4.3 0.00 0.00 0.00 85 1013.7
20260903004008 74 17 1.7 2.6 0.00 0.00 0.00 84 1013.8
20260903003508 74 55 0.0 1.7 0.00 0.00 0.00 85 1013.5
20260903003012 74 36 0.0 1.7 0.00 0.00 0.00 85 1013.5
20260903002507 75 82 0.0 0.0 0.00 0.00 0.00 83 1013.3
20260903002012 75 101 0.0 0.0 0.00 0.00 0.00 82 1013.0
20260903001512 75 84 0.0 0.0 0.00 0.00 0.00 81 1012.9
20260903001008 75 78 0.0 0.0 0.00 0.00 0.00 81 1012.8
20260903000508 76 78 0.0 0.0 0.00 0.00 0.00 80 1012.7
20260903000012 76 78 0.0 0.0 0.00 0.00 0.00 79 1012.8
20260902235508 76 78 0.0 1.7 0.00 0.00 0.00 79 1012.8
20260902235008 76 125 0.9 1.7 0.00 0.00 0.00 78 1012.9
20260902234513 76 152 0.0 1.7 0.00 0.00 0.00 78 1012.9
20260902234013 77 153 0.0 1.7 0.00 0.00 0.00 77 1012.8
20260902233508 77 150 0.0 1.7 0.00 0.00 0.00 77 1012.9
20260902233016 77 36 0.0 3.5 0.00 0.00 0.00 77 1013.2
20260902232514 77 36 0.9 4.3 0.00 0.00 0.00 75 1013.3
20260902232011 78 350 0.0 7.0 0.00 0.00 0.00 73 1013.5
20260902231511 78 360 2.6 8.7 0.00 0.00 0.00 73 1013.8
20260902231009 79 9 0.9 8.7 0.00 0.00 0.00 73 1014.1
20260902230509 79 9 4.3 7.0 0.00 0.00 0.00 72 1014.7
20260902230016 80 27 2.6 6.1 0.00 0.00 0.00 71 1013.3
20260902225512 81 17 3.5 6.1 0.00 0.00 0.00 70 1013.3
20260902225008 82 18 2.6 6.1 0.00 0.00 0.00 67 1013.4
20260902224516 84 53 2.6 10.4 0.00 0.00 0.00 64 1013.0
20260902224012 87 5 5.2 10.4 0.00 0.00 0.00 62 1013.3
20260902223511 87 321 0.9 3.5 0.00 0.00 0.00 60 1012.9
20260902223016 87 311 1.7 3.5 0.00 0.00 0.00 60 1012.7
20260902222511 87 273 1.7 3.5 0.00 0.00 0.00 58 1012.6
20260902222011 87 229 0.0 3.5 0.00 0.00 0.00 59 1012.4
20260902221532 88 260 0.0 6.1 0.00 0.00 0.00 58 1012.4
20260902221015 88 263 2.6 6.1 0.00 0.00 0.00 57 1012.4
20260902220510 88 263 2.6 6.1 0.00 0.00 0.00 58 1012.4
20260902220032 89 225 2.6 6.1 0.00 0.00 0.00 56 1012.3
20260902215513 90 256 2.6 7.8 0.00 0.00 0.00 55 1012.3
20260902215011 90 255 2.6 9.6 0.00 0.00 0.00 53 1012.4
20260902214515 90 271 5.2 10.4 0.00 0.00 0.00 54 1012.5
20260902214009 90 282 3.5 10.4 0.00 0.00 0.00 53 1012.6
20260902213511 90 273 5.2 8.7 0.00 0.00 0.00 52 1012.7
20260902213020 90 244 2.6 7.8 0.00 0.00 0.00 53 1012.8
20260902212512 90 248 3.5 8.7 0.00 0.00 0.00 54 1012.8
20260902212011 90 265 4.3 8.7 0.00 0.00 0.00 56 1012.7
20260902211517 91 274 4.3 9.6 0.00 0.00 0.00 54 1012.6
20260902211011 91 267 2.6 9.6 0.00 0.00 0.00 54 1012.5
20260902210513 91 296 5.2 13.9 0.00 0.00 0.00 53 1012.4
20260902210013 91 226 7.8 13.9 0.00 0.00 0.00 50 1012.3
20260902205510 92 317 3.5 8.7 0.00 0.00 0.00 51 1012.3
20260902205011 92 263 3.5 8.7 0.00 0.00 0.00 52 1012.3
20260902204518 92 246 2.6 8.7 0.00 0.00 0.00 52 1012.4
20260902204012 92 225 1.7 6.1 0.00 0.00 0.00 51 1012.6
20260902203513 92 260 2.6 7.0 0.00 0.00 0.00 54 1012.7
20260902203020 92 260 2.6 7.0 0.00 0.00 0.00 55 1012.9
20260902202513 92 256 0.9 11.3 0.00 0.00 0.00 56 1012.9
20260902202013 92 277 3.5 11.3 0.00 0.00 0.00 52 1013.0
20260902201518 93 276 5.2 11.3 0.00 0.00 0.00 51 1012.9
20260902201016 93 273 2.6 7.8 0.00 0.00 0.00 50 1013.0
20260902200513 93 265 2.6 7.8 0.00 0.00 0.00 53 1013.0
20260902200020 92 263 4.3 9.6 0.00 0.00 0.00 51 1013.1
20260902195514 92 205 4.3 9.6 0.00 0.00 0.00 50 1013.1
20260902195008 93 271 3.5 9.6 0.00 0.00 0.00 50 1013.2
20260902194526 93 243 1.7 9.6 0.00 0.00 0.00 52 1013.2
20260902194012 93 265 2.6 9.6 0.00 0.00 0.00 52 1013.4
20260902193512 93 268 3.5 7.8 0.00 0.00 0.00 54 1013.4
20260902193021 93 196 1.7 9.6 0.00 0.00 0.00 56 1013.5
20260902192513 93 255 2.6 9.6 0.00 0.00 0.00 53 1013.5
20260902192011 92 252 4.3 8.7 0.00 0.00 0.00 53 1013.7
20260902191522 93 263 3.5 8.7 0.00 0.00 0.00 53 1013.8
20260902191013 93 272 4.3 7.8 0.00 0.00 0.00 52 1013.8
20260902190514 93 262 2.6 7.8 0.00 0.00 0.00 57 1013.8
20260902190021 93 266 1.7 7.0 0.00 0.00 0.00 55 1013.8
20260902185508 93 257 1.7 8.7 0.00 0.00 0.00 53 1013.8
20260902185009 93 216 2.6 8.7 0.00 0.00 0.00 54 1013.7
20260902184521 93 232 1.7 7.8 0.00 0.00 0.00 55 1013.6
20260902184013 92 232 2.6 8.7 0.00 0.00 0.00 56 1013.7
20260902183514 93 290 3.5 8.7 0.00 0.00 0.00 56 1013.6
20260902183025 92 236 3.5 7.8 0.00 0.00 0.00 57 1013.6
20260902182503 93 261 2.6 6.1 0.00 0.00 0.00 60 1013.7
20260902182004 92 275 1.7 7.0 0.00 0.00 0.00 63 1013.6
20260902181504 92 216 2.6 6.1 0.00 0.00 0.00 60 1013.7
20260902181011 92 178 2.6 6.1 0.00 0.00 0.00 63 1013.8
20260902180503 92 257 0.9 6.1 0.00 0.00 0.00 61 1014.0
20260902180008 91 263 1.7 4.3 0.00 0.00 0.00 62 1014.1
20260902175504 91 184 0.9 4.3 0.00 0.00 0.00 63 1014.2
20260902175007 91 294 0.9 6.1 0.00 0.00 0.00 62 1014.4
20260902174512 91 263 1.7 6.1 0.00 0.00 0.00 62 1014.4
20260902174012 91 257 1.7 5.2 0.00 0.00 0.00 62 1014.5
20260902173514 90 261 0.9 5.2 0.00 0.00 0.00 64 1014.6
20260902173021 90 269 1.7 6.1 0.00 0.00 0.00 63 1014.7
20260902172513 90 247 2.6 6.1 0.00 0.00 0.00 64 1014.9
20260902172016 90 297 1.7 6.1 0.00 0.00 0.00 64 1015.0
20260902171504 90 291 3.5 6.1 0.00 0.00 0.00 64 1015.1
20260902171006 90 275 2.6 5.2 0.00 0.00 0.00 61 1015.1
20260902170504 90 304 1.7 6.1 0.00 0.00 0.00 63 1015.1
20260902170004 90 309 2.6 7.8 0.00 0.00 0.00 63 1015.2
20260902165507 89 299 3.5 7.8 0.00 0.00 0.00 64 1015.3
20260902165007 89 290 2.6 7.0 0.00 0.00 0.00 66 1015.4
20260902164510 89 336 1.7 7.0 0.00 0.00 0.00 66 1015.4
20260902164010 89 311 2.6 7.0 0.00 0.00 0.00 65 1015.4
20260902163509 88 268 1.7 2.6 0.00 0.00 0.00 68 1015.4
20260902163017 88 268 0.0 2.6 0.00 0.00 0.00 68 1015.4
20260902162517 88 171 0.9 2.6 0.00 0.00 0.00 69 1015.5
20260902162013 88 214 0.9 3.5 0.00 0.00 0.00 69 1015.5
20260902161529 88 269 0.9 3.5 0.00 0.00 0.00 73 1015.5
20260902161016 88 277 0.9 4.3 0.00 0.00 0.00 70 1015.5
20260902160503 88 259 0.9 4.3 0.00 0.00 0.00 70 1015.4
20260902160008 88 136 1.7 6.1 0.00 0.00 0.00 67 1015.3
20260902155507 87 259 1.7 7.0 0.00 0.00 0.00 70 1015.2
20260902155005 87 167 2.6 7.0 0.00 0.00 0.00 71 1015.2
20260902154513 87 211 0.9 5.2 0.00 0.00 0.00 71 1015.2
20260902154007 87 181 1.7 5.2 0.00 0.00 0.00 70 1015.2
20260902153510 87 233 0.9 3.5 0.00 0.00 0.00 73 1015.2
20260902153013 87 195 0.9 4.3 0.00 0.00 0.00 74 1015.2
20260902152511 86 252 1.7 6.1 0.00 0.00 0.00 73 1015.1
20260902152013 86 177 1.7 6.1 0.00 0.00 0.00 75 1015.1
20260902151532 86 234 1.7 4.3 0.00 0.00 0.00 75 1015.1
20260902151013 85 164 1.7 4.3 0.00 0.00 0.00 75 1015.1
20260902150518 85 225 0.9 2.6 0.00 0.00 0.00 75 1015.1
20260902150026 86 266 0.9 2.6 0.00 0.00 0.00 77 1015.1
20260902145505 85 240 0.9 3.5 0.00 0.00 0.00 77 1015.1
20260902145008 84 182 1.7 5.2 0.00 0.00 0.00 74 1015.1
20260902144506 85 177 0.9 4.3 0.00 0.00 0.00 76 1015.1
20260902144007 85 225 0.9 4.3 0.00 0.00 0.00 75 1015.1
20260902143510 84 195 0.9 4.3 0.00 0.00 0.00 75 1015.2
20260902143013 84 198 1.7 4.3 0.00 0.00 0.00 79 1015.2
20260902142509 84 178 0.9 4.3 0.00 0.00 0.00 77 1015.3
20260902142012 84 194 0.9 4.3 0.00 0.00 0.00 79 1015.3
20260902141522 83 247 0.0 4.3 0.00 0.00 0.00 78 1015.3
20260902141015 83 186 0.9 2.6 0.00 0.00 0.00 78 1015.2
20260902140514 82 229 0.9 3.5 0.00 0.00 0.00 78 1015.2
20260902140027 82 202 0.9 3.5 0.00 0.00 0.00 80 1015.2
20260902135516 82 193 0.0 1.7 0.00 0.00 0.00 80 1015.2
20260902135005 82 253 0.9 1.7 0.00 0.00 0.00 82 1015.3
20260902134505 81 244 0.9 2.6 0.00 0.00 0.00 80 1015.2
20260902134007 81 235 0.0 2.6 0.00 0.00 0.00 82 1015.2
20260902133507 81 201 0.9 6.1 0.00 0.00 0.00 82 1015.3
20260902133015 80 241 1.7 6.1 0.00 0.00 0.00 83 1015.2
20260902132508 80 265 0.9 3.5 0.00 0.00 0.00 85 1015.3
20260902132009 79 227 0.9 5.2 0.00 0.00 0.00 85 1015.1
20260902131517 78 182 0.9 5.2 0.00 0.00 0.00 86 1015.2
20260902131013 78 192 0.9 2.6 0.00 0.00 0.00 86 1015.2
20260902130513 77 200 0.9 2.6 0.00 0.00 0.00 87 1015.2
20260902130031 77 192 0.9 2.6 0.00 0.00 0.00 88 1015.1
20260902125515 76 227 0.9 1.7 0.00 0.00 0.00 89 1015.2
20260902125017 76 222 0.9 1.7 0.00 0.00 0.00 89 1015.2
20260902124529 75 199 0.9 2.6 0.00 0.00 0.00 90 1015.2
20260902124006 75 217 0.9 2.6 0.00 0.00 0.00 90 1015.2
20260902123508 75 211 0.9 3.5 0.00 0.00 0.00 90 1015.1
20260902123024 75 209 0.9 3.5 0.00 0.00 0.00 90 1015.0
20260902122511 75 229 0.9 1.7 0.00 0.00 0.00 90 1015.1
20260902122009 75 195 0.9 1.7 0.00 0.00 0.00 90 1015.1
20260902121513 75 235 0.0 1.7 0.00 0.00 0.00 90 1015.1
20260902121016 75 263 0.9 1.7 0.00 0.00 0.00 90 1015.1
20260902120511 74 224 0.0 1.7 0.00 0.00 0.00 90 1015.0
20260902120024 74 223 0.0 1.7 0.00 0.00 0.00 91 1014.9
20260902115514 74 230 0.0 1.7 0.00 0.00 0.00 90 1014.8
20260902115016 74 261 0.0 1.7 0.00 0.00 0.00 91 1014.8
20260902114529 74 233 0.0 1.7 0.00 0.00 0.00 91 1014.6
20260902114016 74 179 0.0 1.7 0.00 0.00 0.00 90 1014.3
20260902113517 74 179 0.0 1.7 0.00 0.00 0.00 91 1014.3
20260902113007 74 157 0.0 1.7 0.00 0.00 0.00 90 1014.2
20260902112505 74 140 0.9 1.7 0.00 0.00 0.00 90 1014.3
20260902112009 74 186 0.0 1.7 0.00 0.00 0.00 90 1014.7
20260902111517 74 244 0.0 3.5 0.00 0.00 0.00 90 1015.0
20260902111009 74 250 0.0 3.5 0.00 0.00 0.00 90 1015.3
20260902110512 74 263 1.7 3.5 0.00 0.00 0.00 90 1015.4
20260902110025 74 254 0.0 1.7 0.00 0.00 0.00 90 1015.3
20260902105513 74 224 0.0 1.7 0.00 0.00 0.00 90 1015.1
20260902105019 74 223 0.0 1.7 0.00 0.00 0.00 90 1015.2
20260902104534 74 223 0.0 1.7 0.00 0.00 0.00 90 1014.9
20260902104016 74 220 0.0 1.7 0.00 0.00 0.00 90 1014.7
20260902103515 74 213 0.0 1.7 0.00 0.00 0.00 90 1014.8
20260902103034 74 213 0.0 1.7 0.00 0.00 0.00 90 1014.8
20260902102517 74 213 0.0 1.7 0.00 0.00 0.00 90 1014.7
20260902102006 74 213 0.0 1.7 0.00 0.00 0.00 90 1014.7
20260902101510 73 232 0.0 1.7 0.00 0.00 0.00 90 1014.6
20260902101009 73 206 0.0 1.7 0.00 0.00 0.00 89 1014.7
20260902100513 74 207 0.0 1.7 0.00 0.00 0.00 89 1014.6
20260902100022 74 225 0.0 1.7 0.00 0.00 0.00 89 1014.5
20260902095514 74 225 0.0 1.7 0.00 0.00 0.00 89 1014.5
20260902095016 74 225 0.0 1.7 0.00 0.00 0.00 89 1014.5
20260902094525 74 207 0.0 1.7 0.00 0.00 0.00 88 1014.5
20260902094018 74 211 0.0 1.7 0.00 0.00 0.00 88 1014.6
20260902093504 74 224 0.0 1.7 0.00 0.00 0.00 88 1014.7
20260902093007 74 201 0.0 1.7 0.00 0.00 0.00 89 1014.8
20260902092504 74 209 0.0 1.7 0.00 0.00 0.00 89 1014.8
20260902092004 74 214 0.0 1.7 0.00 0.00 0.00 88 1014.9
20260902091511 74 213 0.0 1.7 0.00 0.00 0.00 88 1014.9
20260902091012 74 192 0.0 1.7 0.00 0.00 0.00 88 1014.8
20260902090518 74 192 0.0 1.7 0.00 0.00 0.00 88 1014.8
20260902090018 74 192 0.0 1.7 0.00 0.00 0.00 88 1014.9
20260902085511 74 194 0.0 1.7 0.00 0.00 0.00 88 1014.9